| time (UTC) | temp F | wind direction | speed knots | gust knots | rain 1hr in | rain 24hr in | rain mn in | humidity % | barometer mb |
| 20260504081546 | 63 | 160 | 3.5 | 7.0 | 0.00 | 0.00 | 0.00 | 78 | 1014.5 |
| 20260504050007 | 66 | 136 | 5.2 | 10.4 | 0.00 | 0.00 | 0.00 | 72 | 1016.4 |
| 20260504044525 | 66 | 210 | 6.1 | 10.4 | 0.00 | 0.00 | 0.00 | 72 | 1016.5 |
| 20260504043048 | 66 | 202 | 4.3 | 10.4 | 0.00 | 0.00 | 0.00 | 71 | 1016.6 |
| 20260504041508 | 67 | 172 | 6.1 | 11.3 | 0.00 | 0.00 | 0.00 | 69 | 1016.7 |
| 20260504040034 | 67 | 127 | 5.2 | 12.2 | 0.00 | 0.00 | 0.00 | 68 | 1016.8 |
| 20260504034553 | 67 | 165 | 4.3 | 9.6 | 0.00 | 0.00 | 0.00 | 67 | 1016.9 |
| 20260504033006 | 68 | 156 | 5.2 | 11.3 | 0.00 | 0.00 | 0.00 | 65 | 1016.8 |
| 20260504031524 | 68 | 153 | 4.3 | 8.7 | 0.00 | 0.00 | 0.00 | 64 | 1016.6 |
| 20260504030042 | 68 | 153 | 4.3 | 7.0 | 0.00 | 0.00 | 0.00 | 63 | 1016.5 |
| 20260504024559 | 69 | 179 | 3.5 | 7.0 | 0.00 | 0.00 | 0.00 | 62 | 1016.7 |
| 20260504023009 | 70 | 160 | 3.5 | 9.6 | 0.00 | 0.00 | 0.00 | 60 | 1016.6 |
| 20260504021525 | 70 | 187 | 4.3 | 8.7 | 0.00 | 0.00 | 0.00 | 59 | 1016.3 |
| 20260504020041 | 71 | 193 | 5.2 | 9.6 | 0.00 | 0.00 | 0.00 | 58 | 1016.3 |
| 20260504014600 | 71 | 171 | 3.5 | 6.1 | 0.00 | 0.00 | 0.00 | 56 | 1015.9 |
| 20260504013029 | 71 | 219 | 0.9 | 3.5 | 0.00 | 0.00 | 0.00 | 53 | 1015.7 |
| 20260504011554 | 72 | 108 | 0.9 | 2.6 | 0.00 | 0.00 | 0.00 | 51 | 1015.6 |
| 20260504010002 | 73 | 198 | 0.0 | 1.7 | 0.00 | 0.00 | 0.00 | 48 | 1015.7 |
| 20260504004521 | 75 | 177 | 0.0 | 3.5 | 0.00 | 0.00 | 0.00 | 46 | 1015.6 |
| 20260504003056 | 75 | 174 | 0.9 | 6.1 | 0.00 | 0.00 | 0.00 | 44 | 1015.7 |
| 20260504001511 | 76 | 173 | 3.5 | 7.8 | 0.00 | 0.00 | 0.00 | 41 | 1015.7 |
| 20260504000029 | 77 | 151 | 3.5 | 7.0 | 0.00 | 0.00 | 0.00 | 40 | 1016.0 |
| 20260503234522 | 77 | 160 | 1.7 | 7.8 | 0.00 | 0.00 | 0.00 | 40 | 1016.3 |
| 20260503233047 | 77 | 176 | 2.6 | 8.7 | 0.00 | 0.00 | 0.00 | 40 | 1016.3 |
| 20260503231503 | 77 | 11 | 3.5 | 7.8 | 0.00 | 0.00 | 0.00 | 39 | 1016.4 |
| 20260503230025 | 78 | 150 | 2.6 | 8.7 | 0.00 | 0.00 | 0.00 | 37 | 1016.3 |
| 20260503224548 | 78 | 121 | 3.5 | 8.7 | 0.00 | 0.00 | 0.00 | 38 | 1016.3 |
| 20260503223101 | 78 | 161 | 3.5 | 7.0 | 0.00 | 0.00 | 0.00 | 37 | 1016.6 |
| 20260503221516 | 78 | 177 | 3.5 | 7.8 | 0.00 | 0.00 | 0.00 | 38 | 1016.9 |
| 20260503220045 | 78 | 169 | 4.3 | 8.7 | 0.00 | 0.00 | 0.00 | 37 | 1017.3 |
| 20260503214504 | 78 | 164 | 2.6 | 10.4 | 0.00 | 0.00 | 0.00 | 37 | 1017.4 |
| 20260503213032 | 78 | 143 | 4.3 | 9.6 | 0.00 | 0.00 | 0.00 | 38 | 1017.8 |
| 20260503211557 | 78 | 160 | 1.7 | 7.0 | 0.00 | 0.00 | 0.00 | 38 | 1017.8 |
| 20260503210055 | 78 | 155 | 2.6 | 7.0 | 0.00 | 0.00 | 0.00 | 41 | 1018.3 |
| 20260503204551 | 78 | 206 | 3.5 | 8.7 | 0.00 | 0.00 | 0.00 | 39 | 1018.7 |
| 20260503203047 | 77 | 160 | 0.0 | 7.8 | 0.00 | 0.00 | 0.00 | 39 | 1019.0 |
| 20260503201603 | 78 | 160 | 3.5 | 8.7 | 0.00 | 0.00 | 0.00 | 43 | 1019.2 |
| 20260503200016 | 77 | 176 | 0.0 | 6.1 | 0.00 | 0.00 | 0.00 | 41 | 1019.6 |
| 20260503194535 | 77 | 149 | 3.5 | 7.8 | 0.00 | 0.00 | 0.00 | 43 | 1019.7 |
| 20260503193052 | 77 | 146 | 2.6 | 8.7 | 0.00 | 0.00 | 0.00 | 41 | 1019.8 |
| 20260503191509 | 76 | 160 | 3.5 | 7.8 | 0.00 | 0.00 | 0.00 | 40 | 1020.0 |
| 20260503190022 | 76 | 148 | 3.5 | 9.6 | 0.00 | 0.00 | 0.00 | 44 | 1020.4 |
| 20260503184558 | 76 | 144 | 3.5 | 7.0 | 0.00 | 0.00 | 0.00 | 43 | 1020.6 |
| 20260503183046 | 76 | 158 | 0.9 | 6.1 | 0.00 | 0.00 | 0.00 | 44 | 1020.8 |
| 20260503181609 | 76 | 172 | 1.7 | 6.1 | 0.00 | 0.00 | 0.00 | 43 | 1021.1 |
| 20260503180029 | 75 | 173 | 2.6 | 6.1 | 0.00 | 0.00 | 0.00 | 44 | 1021.5 |
| 20260503174551 | 75 | 183 | 1.7 | 8.7 | 0.00 | 0.00 | 0.00 | 46 | 1021.7 |
| 20260503173131 | 74 | 172 | 2.6 | 7.0 | 0.00 | 0.00 | 0.00 | 49 | 1022.1 |
| 20260503171517 | 74 | 193 | 2.6 | 7.0 | 0.00 | 0.00 | 0.00 | 52 | 1022.2 |
| 20260503160104 | 73 | 165 | 1.7 | 6.1 | 0.00 | 0.00 | 0.00 | 52 | 1023.0 |